Centerville, IA

6:31 PM CDT on August 30, 2016 (GMT -0500)
Centerville Municipal

Weather History for KTVK - January, 2014

Change the Weather History Date:

Thursday, January 2, 2014

  Actual Average Record
Temperature  
Mean Temperature 2 °F -  
Max Temperature 8 °F 31 °F 56 °F (1950)
Min Temperature -5 °F 16 °F -15 °F (1979)
Degree Days  
Heating Degree Days 64    
Moisture  
Dew Point -3 °F    
Average Humidity 73    
Maximum Humidity 85    
Minimum Humidity 52    
Precipitation  
Precipitation 0.00 in - - ()
Sea Level Pressure  
Sea Level Pressure 30.38 in    
Wind  
Wind Speed 11 mph (NW)    
Max Wind Speed 17 mph    
Max Gust Speed 21 mph    
Visibility 10 miles    
Events Snow    
Averages and records for this station are not official NWS values.
T = Trace of Precipitation, MM = Missing Value Source: NWS Daily Summary

Daily Weather History Graph

Daily Weather History Graph

Search for Another Location

Airport or City:

Trip Planner

Search our weather history database for the weather conditions in past years. The results will help you decide how hot, cold, wet, or windy it might be!

Date:

Astronomy

Jan. 02, 2014 Rise Set
Actual Time 7:35 AM CST 4:55 PM CST
Civil Twilight 7:04 AM CST 5:26 PM CST
Nautical Twilight 6:30 AM CST 6:01 PM CST
Astronomical Twilight 5:57 AM CST 6:34 PM CST
Moon 8:16 AM CST (1/2) 6:54 PM CST (1/2)
Length of Visible Light 10h 21m
Length of Day
9h 20m
Waxing Crescent, 3% of the Moon is Illuminated
Jan 2
Waxing Crescent
Jan 7
First Quarter
Jan 15
Full
Jan 23
Last Quarter
Jan 30
New

Hourly Weather History & Observations

Time (CST) Temp. Windchill Dew Point Humidity Pressure Visibility Wind Dir Wind Speed Gust Speed Precip Events Conditions
12:15 AM 6.8 °F -10.0 °F 3.2 °F 85% 30.27 in 10.0 mi NNW 13.8 mph - N/A Snow Light Snow
12:35 AM 6.8 °F -9.3 °F 1.4 °F 79% 30.26 in 10.0 mi NNW 12.7 mph - N/A Snow Light Snow
12:55 AM 6.8 °F -10.0 °F 1.4 °F 79% 30.26 in 10.0 mi NNW 13.8 mph - N/A Snow Light Snow
1:15 AM 6.8 °F -9.3 °F 1.4 °F 79% 30.26 in 10.0 mi NNW 12.7 mph - N/A Snow Light Snow
1:35 AM 6.8 °F -11.3 °F 1.4 °F 79% 30.26 in 10.0 mi NNW 16.1 mph - N/A Snow Light Snow
1:55 AM 6.8 °F -10.0 °F 1.4 °F 79% 30.27 in 10.0 mi NNW 13.8 mph 20.7 mph N/A Snow Light Snow
2:15 AM 6.8 °F -10.0 °F 1.4 °F 79% 30.28 in 10.0 mi NW 13.8 mph - N/A   Overcast
2:35 AM 6.8 °F -11.8 °F 1.4 °F 79% 30.29 in 10.0 mi NNW 17.3 mph - N/A   Mostly Cloudy
2:55 AM 6.8 °F -10.0 °F 1.4 °F 79% 30.29 in 10.0 mi NNW 13.8 mph - N/A Snow Light Snow
3:15 AM 6.8 °F -8.6 °F 1.4 °F 79% 30.29 in 10.0 mi NNW 11.5 mph - N/A Snow Light Snow
3:35 AM 6.8 °F -9.3 °F 1.4 °F 79% 30.29 in 10.0 mi NNW 12.7 mph - N/A Snow Light Snow
3:55 AM 6.8 °F -10.0 °F 1.4 °F 79% 30.29 in 10.0 mi NW 13.8 mph - N/A Snow Light Snow
4:15 AM 6.8 °F -10.0 °F 1.4 °F 79% 30.28 in 10.0 mi NNW 13.8 mph - N/A   Overcast
4:35 AM 5.0 °F -11.6 °F 1.4 °F 85% 30.29 in 10.0 mi NW 12.7 mph - N/A   Overcast
4:55 AM 5.0 °F -10.8 °F 1.4 °F 85% 30.30 in 10.0 mi NW 11.5 mph - N/A Snow Light Snow
5:15 AM 6.8 °F -6.9 °F 1.4 °F 79% 30.31 in 10.0 mi NNW 9.2 mph - N/A Snow Light Snow
5:35 AM 6.8 °F -8.6 °F 1.4 °F 79% 30.31 in 10.0 mi NW 11.5 mph - N/A Snow Light Snow
5:55 AM 6.8 °F -7.8 °F -0.4 °F 72% 30.31 in 10.0 mi NNW 10.4 mph - N/A Snow Light Snow
6:15 AM 6.8 °F -8.6 °F -0.4 °F 72% 30.32 in 10.0 mi NNW 11.5 mph - N/A Snow Light Snow
6:35 AM 6.8 °F -9.3 °F -0.4 °F 72% 30.31 in 10.0 mi NNW 12.7 mph - N/A   Mostly Cloudy
6:55 AM 5.0 °F -10.8 °F -0.4 °F 78% 30.33 in 10.0 mi NW 11.5 mph 16.1 mph N/A   Overcast
7:15 AM 5.0 °F -10.0 °F -0.4 °F 78% 30.32 in 10.0 mi NNW 10.4 mph - N/A   Mostly Cloudy
7:35 AM 5.0 °F -10.0 °F -0.4 °F 78% 30.33 in 10.0 mi NNW 10.4 mph - N/A   Overcast
7:55 AM 5.0 °F -10.8 °F -0.4 °F 78% 30.33 in 10.0 mi NNW 11.5 mph - N/A   Overcast
8:15 AM 5.0 °F -9.1 °F -0.4 °F 78% 30.35 in 10.0 mi NW 9.2 mph - N/A   Mostly Cloudy
8:35 AM 5.0 °F -8.1 °F -0.4 °F 78% 30.36 in 10.0 mi NNW 8.1 mph - N/A   Mostly Cloudy
8:55 AM 5.0 °F -11.6 °F -0.4 °F 78% 30.36 in 10.0 mi NW 12.7 mph - N/A   Overcast
9:15 AM 5.0 °F -11.6 °F -0.4 °F 78% 30.37 in 10.0 mi NW 12.7 mph - N/A   Mostly Cloudy
9:35 AM 5.0 °F -12.3 °F -0.4 °F 78% 30.37 in 10.0 mi NW 13.8 mph - N/A   Partly Cloudy
9:55 AM 6.8 °F -8.6 °F -0.4 °F 72% 30.37 in 10.0 mi NW 11.5 mph - N/A   Clear
10:15 AM 6.8 °F -10.0 °F -0.4 °F 72% 30.38 in 10.0 mi NNW 13.8 mph - N/A   Clear
10:35 AM 6.8 °F -10.0 °F -0.4 °F 72% 30.38 in 10.0 mi NW 13.8 mph - N/A   Clear
10:55 AM 6.8 °F -9.3 °F -0.4 °F 72% 30.39 in 10.0 mi NW 12.7 mph - N/A   Clear
11:15 AM 6.8 °F -10.0 °F -0.4 °F 72% 30.38 in 10.0 mi NW 13.8 mph - N/A   Clear
11:35 AM 8.6 °F -7.0 °F -0.4 °F 67% 30.38 in 10.0 mi NW 12.7 mph - N/A   Clear
11:55 AM 8.6 °F -6.3 °F -0.4 °F 67% 30.38 in 10.0 mi NW 11.5 mph - N/A   Clear
12:15 PM 8.6 °F -6.3 °F -0.4 °F 67% 30.37 in 10.0 mi NW 11.5 mph - N/A   Clear
12:35 PM 8.6 °F -6.3 °F -0.4 °F 67% 30.37 in 10.0 mi NW 11.5 mph - N/A   Clear
12:55 PM 8.6 °F -7.7 °F -0.4 °F 67% 30.38 in 10.0 mi WNW 13.8 mph - N/A   Clear
1:15 PM 8.6 °F -7.0 °F -0.4 °F 67% 30.38 in 10.0 mi NW 12.7 mph - N/A   Clear
1:35 PM 8.6 °F -7.0 °F -0.4 °F 67% 30.38 in 10.0 mi WNW 12.7 mph - N/A   Clear
1:55 PM 8.6 °F -6.3 °F -0.4 °F 67% 30.38 in 10.0 mi NW 11.5 mph - N/A   Clear
2:15 PM 8.6 °F -6.3 °F -0.4 °F 67% 30.38 in 10.0 mi WNW 11.5 mph - N/A   Clear
2:35 PM 8.6 °F -7.0 °F -2.2 °F 62% 30.39 in 10.0 mi NW 12.7 mph - N/A   Clear
2:55 PM 8.6 °F -6.3 °F -2.2 °F 62% 30.40 in 10.0 mi NW 11.5 mph - N/A   Clear
3:15 PM 8.6 °F -5.5 °F -2.2 °F 62% 30.39 in 10.0 mi NNW 10.4 mph - N/A   Clear
3:35 PM 8.6 °F -5.5 °F -4.0 °F 57% 30.41 in 10.0 mi NNW 10.4 mph - N/A   Clear
3:55 PM 8.6 °F -5.5 °F -5.8 °F 52% 30.42 in 10.0 mi NW 10.4 mph - N/A   Clear
4:15 PM 6.8 °F -7.8 °F -4.0 °F 61% 30.43 in 10.0 mi NNW 10.4 mph - N/A   Clear
4:35 PM 6.8 °F -5.9 °F -5.8 °F 56% 30.43 in 10.0 mi NW 8.1 mph - N/A   Clear
4:55 PM 5.0 °F -6.9 °F -5.8 °F 61% 30.43 in 10.0 mi NNW 6.9 mph - N/A   Clear
5:15 PM 5.0 °F -8.1 °F -5.8 °F 61% 30.45 in 10.0 mi NW 8.1 mph - N/A   Clear
5:35 PM 1.4 °F -9.9 °F -7.6 °F 66% 30.45 in 10.0 mi NW 5.8 mph - N/A   Clear
5:55 PM -0.4 °F -13.4 °F -7.6 °F 72% 30.46 in 10.0 mi NW 6.9 mph - N/A   Clear
6:15 PM -0.4 °F -12.0 °F -7.6 °F 72% 30.45 in 10.0 mi NNW 5.8 mph - N/A   Clear
6:35 PM -0.4 °F -12.0 °F -7.6 °F 72% 30.45 in 10.0 mi NNW 5.8 mph - N/A   Clear
6:55 PM -0.4 °F -10.4 °F -7.6 °F 72% 30.45 in 10.0 mi NNW 4.6 mph - N/A   Clear
7:15 PM -0.4 °F -8.3 °F -7.6 °F 72% 30.46 in 10.0 mi NNW 3.5 mph - N/A   Clear
7:35 PM -0.4 °F - -7.6 °F 72% 30.46 in 10.0 mi Calm Calm - N/A   Clear
7:55 PM -0.4 °F - -7.6 °F 72% 30.46 in 10.0 mi Calm Calm - N/A   Clear
8:15 PM -0.4 °F - -7.6 °F 72% 30.47 in 10.0 mi Calm Calm - N/A   Clear
8:35 PM -2.2 °F -12.5 °F -9.4 °F 71% 30.47 in 10.0 mi NNW 4.6 mph - N/A   Clear
8:55 PM -2.2 °F -10.4 °F -9.4 °F 71% 30.46 in 10.0 mi North 3.5 mph - N/A   Clear
9:15 PM -2.2 °F -14.2 °F -7.6 °F 78% 30.45 in 10.0 mi North 5.8 mph - N/A   Clear
9:35 PM -2.2 °F -12.5 °F -7.6 °F 78% 30.45 in 10.0 mi NNW 4.6 mph - N/A   Clear
9:55 PM -2.2 °F - -7.6 °F 78% 30.44 in 10.0 mi Calm Calm - N/A   Clear
10:15 PM -2.2 °F -10.4 °F -7.6 °F 78% 30.45 in 10.0 mi NNW 3.5 mph - N/A   Clear
10:35 PM -4.0 °F -16.3 °F -9.4 °F 78% 30.46 in 10.0 mi West 5.8 mph - N/A   Clear
10:55 PM -4.0 °F -16.3 °F -9.4 °F 78% 30.47 in 10.0 mi West 5.8 mph - N/A   Clear
11:15 PM -5.8 °F - -11.2 °F 77% 30.45 in 10.0 mi Calm Calm - N/A   Clear
11:35 PM -4.0 °F -12.4 °F -9.4 °F 78% 30.45 in 10.0 mi West 3.5 mph - N/A   Clear
11:55 PM -4.0 °F -14.6 °F -9.4 °F 78% 30.44 in 10.0 mi WNW 4.6 mph - N/A   Clear